Location: Unspecified
(0.0000°N, 0.0000°E)
Time: 04:59:23
(UTC+00:00)

Courier 1B Rocket - Pass Details

Date: 18 December 2018
Orbit: 920 x 1202 km, 28.2° (Epoch: 16 June)

Event Time Altitude Azimuth Distance (km) Brightness Sun altitude
Rises 03:06:24 0° 229° (SW) 3,669 - -38.3°
Reaches altitude 10° 03:09:12 10° 224° (SW) 2,686 - -37.7°
Maximum altitude 03:15:21 47° 151° (SSE) 1,211 - -36.4°
Exits shadow 03:16:13 44° 127° (SE) 1,252 5.8 -36.2°
Drops below altitude 10° 03:21:18 10° 78° (ENE) 2,602 7.7 -35.1°
Sets 03:23:59 0° 72° (ENE) 3,544 8.5 -34.5°
